Torna al catalogo

FENGYUN 1C DEB

AttivoSSO
NORAD 31519·DEBRIS·🇨🇳 China

Lanciato May 10, 1999 da Taiyuan Satellite Launch Center

Loading…

Prossimi Passaggi (prossime 24 ore)

TLE

AggiornatoSource: Space-Track

Epoca: Sep 13, 2026, 05:03 UTC

1 31519U 99025BXJ 26256.21078703  .00000484  00000-0  22672-3 0  9991
2 31519  98.5878 251.0906 0052549 163.0441 197.2509 14.23877674686702

Traccia FENGYUN 1C DEB in tempo reale con AllMySat

Download on the App Store